OAS259 TJSJ-SKBO

Flight info

Callsign OAS259
Flight time N/A
Altitude 38000
Route GANBO1 SCAPA UL325 ENPUT DCT DOPLO DOPLO5W
Aircraft A346/H-SDE2E3FGHIJ3J4J5M1RWXY/LB1D1

Departure

Time N/A
Airport Luis Munoz Marin International Airport (TJSJ)

Arrival

Time 2026-05-03 21:37
Airport El Dorado International Airport (SKBO)
Time Latitude Longitude Altitude Speed Heading
2026-05-03 20:15 12.67162 -68.90971 37954 ft 475 kts 207°
2026-05-03 20:15 12.61137 -68.93756 37954 ft 475 kts 207°
2026-05-03 20:16 12.55113 -68.96539 37960 ft 475 kts 207°
2026-05-03 20:16 12.49088 -68.99322 37951 ft 475 kts 207°
2026-05-03 20:17 12.43074 -69.02098 37955 ft 474 kts 207°
2026-05-03 20:17 12.37055 -69.04876 37960 ft 474 kts 207°
2026-05-03 20:18 12.31077 -69.07632 37948 ft 475 kts 207°
2026-05-03 20:18 12.25054 -69.10408 37945 ft 475 kts 207°
2026-05-03 20:19 12.19038 -69.13180 37945 ft 474 kts 207°
2026-05-03 20:19 12.13016 -69.15954 37944 ft 474 kts 207°
2026-05-03 20:20 12.06997 -69.18726 37950 ft 474 kts 207°
2026-05-03 20:20 12.00970 -69.21500 37951 ft 475 kts 207°
2026-05-03 20:21 11.95027 -69.24416 37956 ft 473 kts 211°
2026-05-03 20:21 11.89418 -69.27908 37953 ft 471 kts 217°
2026-05-03 20:22 11.84224 -69.31981 37957 ft 470 kts 222°
2026-05-03 20:22 11.79244 -69.36311 37966 ft 470 kts 223°
2026-05-03 20:23 11.74264 -69.40645 37956 ft 470 kts 223°
2026-05-03 20:23 11.69281 -69.44973 37949 ft 470 kts 223°
2026-05-03 20:24 11.64294 -69.49299 37949 ft 470 kts 223°
2026-05-03 20:24 11.59307 -69.53622 37947 ft 470 kts 223°
2026-05-03 20:25 11.54320 -69.57945 37950 ft 470 kts 223°
2026-05-03 20:25 11.49328 -69.62269 37948 ft 470 kts 223°
2026-05-03 20:26 11.44336 -69.66592 37946 ft 470 kts 223°
2026-05-03 20:26 11.39397 -69.70971 37950 ft 470 kts 224°
2026-05-03 20:27 11.34560 -69.75467 37944 ft 470 kts 224°
2026-05-03 20:27 11.29728 -69.79968 37945 ft 470 kts 224°
2026-05-03 20:28 11.24893 -69.84468 37955 ft 471 kts 224°
2026-05-03 20:28 11.20085 -69.88939 37942 ft 471 kts 224°
2026-05-03 20:29 11.15245 -69.93439 37949 ft 471 kts 224°
2026-05-03 20:29 11.10398 -69.97946 37944 ft 471 kts 224°
2026-05-03 20:30 11.05554 -70.02447 37942 ft 472 kts 224°
2026-05-03 20:30 11.00704 -70.06964 37953 ft 472 kts 224°
2026-05-03 20:31 10.95859 -70.11484 37958 ft 473 kts 224°
2026-05-03 20:31 10.91007 -70.16011 37965 ft 473 kts 224°
2026-05-03 20:32 10.86150 -70.20538 37972 ft 473 kts 224°
2026-05-03 20:32 10.81292 -70.25066 37971 ft 474 kts 224°
2026-05-03 20:33 10.76428 -70.29599 37962 ft 474 kts 224°
2026-05-03 20:33 10.71566 -70.34128 37965 ft 474 kts 224°
2026-05-03 20:34 10.66703 -70.38667 37977 ft 474 kts 224°
2026-05-03 20:34 10.61837 -70.43205 37969 ft 474 kts 224°
2026-05-03 20:35 10.56956 -70.47722 37967 ft 474 kts 224°
2026-05-03 20:35 10.52105 -70.52213 37980 ft 474 kts 224°
2026-05-03 20:36 10.47226 -70.56733 37976 ft 475 kts 224°
2026-05-03 20:36 10.42344 -70.61257 37980 ft 475 kts 224°
2026-05-03 20:37 10.37461 -70.65779 37977 ft 475 kts 224°
2026-05-03 20:37 10.32577 -70.70299 37960 ft 475 kts 224°
2026-05-03 20:38 10.27689 -70.74814 37978 ft 475 kts 224°
2026-05-03 20:38 10.22805 -70.79328 37977 ft 475 kts 224°
2026-05-03 20:39 10.17923 -70.83842 37959 ft 475 kts 224°
2026-05-03 20:39 10.13037 -70.88356 37978 ft 474 kts 224°
2026-05-03 20:40 10.08146 -70.92866 37980 ft 474 kts 224°
2026-05-03 20:40 10.03257 -70.97374 37961 ft 475 kts 224°
2026-05-03 20:41 9.98378 -71.01878 37977 ft 475 kts 224°
2026-05-03 20:41 9.93488 -71.06394 37963 ft 475 kts 224°
2026-05-03 20:42 9.88589 -71.10911 37978 ft 476 kts 224°
2026-05-03 20:42 9.84517 -71.14665 37963 ft 476 kts 224°
2026-05-03 20:43 9.79618 -71.19180 37979 ft 475 kts 223°
2026-05-03 20:43 9.74718 -71.23684 37977 ft 475 kts 223°
2026-05-03 20:44 9.69019 -71.28921 37978 ft 475 kts 223°
2026-05-03 20:44 9.64915 -71.32695 37979 ft 475 kts 223°
2026-05-03 20:45 9.60014 -71.37200 37977 ft 475 kts 223°
2026-05-03 20:45 9.55116 -71.41702 37961 ft 475 kts 223°
2026-05-03 20:46 9.50215 -71.46204 37962 ft 475 kts 223°
2026-05-03 20:46 9.45313 -71.50707 37966 ft 475 kts 223°
2026-05-03 20:47 9.40408 -71.55210 37958 ft 476 kts 223°
2026-05-03 20:47 9.35500 -71.59713 37963 ft 476 kts 223°
2026-05-03 20:48 9.30597 -71.64211 37970 ft 476 kts 223°
2026-05-03 20:48 9.25688 -71.68714 37968 ft 476 kts 223°
2026-05-03 20:49 9.20781 -71.73213 37962 ft 476 kts 223°
2026-05-03 20:49 9.15908 -71.77679 37954 ft 476 kts 223°
2026-05-03 20:50 9.10996 -71.82180 37938 ft 476 kts 223°
2026-05-03 20:50 9.06084 -71.86681 37937 ft 476 kts 223°
2026-05-03 20:51 9.01123 -71.91127 37940 ft 476 kts 220°
2026-05-03 20:51 8.95784 -71.95103 37933 ft 477 kts 214°
2026-05-03 20:52 8.90058 -71.98514 37934 ft 478 kts 210°
2026-05-03 20:52 8.84234 -72.01769 37929 ft 478 kts 209°
2026-05-03 20:53 8.78415 -72.05022 37928 ft 478 kts 209°
2026-05-03 20:53 8.72599 -72.08277 37928 ft 477 kts 209°
2026-05-03 20:54 8.66785 -72.11532 37932 ft 477 kts 209°
2026-05-03 20:54 8.58063 -72.16414 37929 ft 478 kts 209°
2026-05-03 20:55 8.52248 -72.19668 37929 ft 478 kts 209°
2026-05-03 20:55 8.46432 -72.22921 37931 ft 478 kts 209°
2026-05-03 20:56 8.40617 -72.26174 37930 ft 478 kts 209°
2026-05-03 20:56 8.34798 -72.29428 37928 ft 478 kts 209°
2026-05-03 20:57 8.28979 -72.32682 37931 ft 478 kts 209°
2026-05-03 20:57 8.23158 -72.35935 37927 ft 478 kts 209°
2026-05-03 20:58 8.17214 -72.38939 37929 ft 478 kts 205°
2026-05-03 20:58 8.11166 -72.41740 37930 ft 478 kts 205°
2026-05-03 20:59 8.05123 -72.44538 37926 ft 478 kts 205°
2026-05-03 20:59 7.99082 -72.47339 37930 ft 478 kts 205°
2026-05-03 21:00 7.94060 -72.49669 37931 ft 478 kts 205°
2026-05-03 21:00 7.86993 -72.52947 37931 ft 478 kts 205°
2026-05-03 21:01 7.80989 -72.55730 37929 ft 478 kts 205°
2026-05-03 21:01 7.74945 -72.58532 37932 ft 478 kts 205°
2026-05-03 21:02 7.68901 -72.61333 37928 ft 478 kts 205°
2026-05-03 21:02 7.62860 -72.64131 37936 ft 478 kts 205°
2026-05-03 21:03 7.56817 -72.66929 37933 ft 477 kts 205°
2026-05-03 21:03 7.50783 -72.69723 37939 ft 477 kts 205°
2026-05-03 21:04 7.44750 -72.72516 37951 ft 477 kts 205°
2026-05-03 21:04 7.38717 -72.75307 37969 ft 477 kts 205°
2026-05-03 21:05 7.32685 -72.78097 37979 ft 477 kts 205°
2026-05-03 21:05 7.26655 -72.80885 37985 ft 477 kts 205°
2026-05-03 21:06 7.20621 -72.83675 37993 ft 477 kts 204°
2026-05-03 21:06 7.14585 -72.86464 38002 ft 477 kts 204°
2026-05-03 21:07 7.08552 -72.89251 38009 ft 477 kts 204°
2026-05-03 21:07 7.02522 -72.92037 38007 ft 477 kts 204°
2026-05-03 21:08 6.96537 -72.94800 38014 ft 477 kts 204°
2026-05-03 21:08 6.90505 -72.97585 38025 ft 477 kts 204°
2026-05-03 21:09 6.84477 -73.00367 38030 ft 477 kts 204°
2026-05-03 21:09 6.78448 -73.03148 38028 ft 477 kts 204°
2026-05-03 21:10 6.72415 -73.05931 38037 ft 477 kts 204°
2026-05-03 21:10 6.66386 -73.08711 38028 ft 477 kts 204°
2026-05-03 21:11 6.60358 -73.11490 38028 ft 477 kts 204°
2026-05-03 21:11 6.54323 -73.14271 38026 ft 477 kts 204°
2026-05-03 21:12 6.48296 -73.17048 38028 ft 477 kts 204°
2026-05-03 21:12 6.42265 -73.19826 38035 ft 477 kts 204°
2026-05-03 21:13 6.36234 -73.22604 38005 ft 476 kts 204°
2026-05-03 21:13 6.30206 -73.25379 37964 ft 476 kts 204°
2026-05-03 21:14 6.24180 -73.28153 37977 ft 476 kts 204°
2026-05-03 21:14 6.18152 -73.30928 37978 ft 476 kts 204°
2026-05-03 21:15 6.12128 -73.33700 37983 ft 476 kts 204°
2026-05-03 21:15 6.06095 -73.36477 37498 ft 479 kts 204°
2026-05-03 21:16 6.03048 -73.37879 36719 ft 483 kts 204°
2026-05-03 21:16 6.00025 -73.39272 35944 ft 486 kts 204°
2026-05-03 21:16 5.96904 -73.40709 35246 ft 487 kts 204°
2026-05-03 21:16 5.93862 -73.42109 34593 ft 488 kts 204°
2026-05-03 21:17 5.90773 -73.43530 33922 ft 488 kts 204°
2026-05-03 21:17 5.88696 -73.44504 33480 ft 488 kts 205°
2026-05-03 21:17 5.84718 -73.46616 32633 ft 488 kts 209°
2026-05-03 21:17 5.81817 -73.48403 31982 ft 488 kts 212°
2026-05-03 21:18 5.79025 -73.50344 31345 ft 488 kts 215°
2026-05-03 21:18 5.76290 -73.52363 30712 ft 487 kts 216°
2026-05-03 21:18 5.73566 -73.54390 30067 ft 487 kts 216°
2026-05-03 21:18 5.70846 -73.56415 29408 ft 486 kts 216°
2026-05-03 21:19 5.68127 -73.58438 28737 ft 486 kts 216°
2026-05-03 21:19 5.65413 -73.60454 28043 ft 486 kts 216°
2026-05-03 21:19 5.62704 -73.62465 27542 ft 481 kts 216°
2026-05-03 21:19 5.60027 -73.64451 27034 ft 476 kts 216°
2026-05-03 21:20 5.57376 -73.66416 26556 ft 471 kts 216°
2026-05-03 21:20 5.54751 -73.68362 26045 ft 467 kts 216°
2026-05-03 21:20 5.52149 -73.70292 25567 ft 463 kts 216°
2026-05-03 21:20 5.49570 -73.72203 25106 ft 458 kts 216°
2026-05-03 21:21 5.47022 -73.74092 24683 ft 453 kts 215°
2026-05-03 21:21 5.44527 -73.75999 24248 ft 449 kts 220°
2026-05-03 21:21 5.42398 -73.78269 23818 ft 445 kts 232°
2026-05-03 21:21 5.40778 -73.80902 23396 ft 442 kts 243°
2026-05-03 21:22 5.39653 -73.83759 22996 ft 438 kts 250°
2026-05-03 21:22 5.38680 -73.86640 22706 ft 430 kts 251°
2026-05-03 21:22 5.37758 -73.89440 22632 ft 415 kts 251°
2026-05-03 21:22 5.36847 -73.92178 22533 ft 401 kts 250°
2026-05-03 21:23 5.35966 -73.94788 22440 ft 388 kts 250°
2026-05-03 21:23 5.35120 -73.97277 22288 ft 376 kts 250°
2026-05-03 21:23 5.34272 -73.99757 22232 ft 360 kts 250°
2026-05-03 21:23 5.33466 -74.02107 22213 ft 353 kts 250°
2026-05-03 21:24 5.32668 -74.04433 21993 ft 353 kts 250°
2026-05-03 21:24 5.31868 -74.06764 21585 ft 352 kts 250°
2026-05-03 21:24 5.31075 -74.09078 21233 ft 350 kts 250°
2026-05-03 21:24 5.30286 -74.11381 20904 ft 346 kts 250°
2026-05-03 21:25 5.29508 -74.13653 20590 ft 343 kts 250°
2026-05-03 21:25 5.28736 -74.15908 20232 ft 340 kts 250°
2026-05-03 21:25 5.27967 -74.18153 19860 ft 339 kts 249°
2026-05-03 21:25 5.27211 -74.20364 19517 ft 338 kts 249°
2026-05-03 21:26 5.26448 -74.22591 19172 ft 336 kts 249°
2026-05-03 21:26 5.25691 -74.24800 18843 ft 334 kts 249°
2026-05-03 21:26 5.24938 -74.26998 18505 ft 331 kts 249°
2026-05-03 21:26 5.24188 -74.29187 18211 ft 335 kts 250°
2026-05-03 21:27 5.23240 -74.31349 17983 ft 339 kts 231°
2026-05-03 21:27 5.21519 -74.32908 17492 ft 332 kts 203°
2026-05-03 21:27 5.19335 -74.33552 17042 ft 326 kts 187°
2026-05-03 21:27 5.17099 -74.33935 16629 ft 325 kts 188°
2026-05-03 21:28 5.14893 -74.34387 16268 ft 323 kts 191°
2026-05-03 21:28 5.12721 -74.34928 15922 ft 320 kts 193°
2026-05-03 21:28 5.10584 -74.35524 15599 ft 317 kts 194°
2026-05-03 21:28 5.08474 -74.36150 15271 ft 315 kts 195°
2026-05-03 21:29 5.06388 -74.36791 14942 ft 313 kts 195°
2026-05-03 21:29 5.04316 -74.37439 14615 ft 310 kts 195°
2026-05-03 21:29 5.02264 -74.38084 14298 ft 307 kts 195°
2026-05-03 21:29 5.00235 -74.38722 13988 ft 304 kts 195°
2026-05-03 21:30 4.98224 -74.39356 13676 ft 302 kts 196°
2026-05-03 21:30 4.96233 -74.39983 13371 ft 299 kts 196°
2026-05-03 21:30 4.94249 -74.40591 13047 ft 297 kts 191°
2026-05-03 21:30 4.92187 -74.40645 12843 ft 295 kts 166°
2026-05-03 21:31 4.90356 -74.39901 12840 ft 276 kts 143°
2026-05-03 21:31 4.88999 -74.38609 12846 ft 263 kts 127°
2026-05-03 21:31 4.87902 -74.37159 12852 ft 259 kts 125°
2026-05-03 21:31 4.86835 -74.35702 12857 ft 259 kts 125°
2026-05-03 21:32 4.86125 -74.34738 12865 ft 259 kts 125°
2026-05-03 21:32 4.85045 -74.33286 12647 ft 261 kts 126°
2026-05-03 21:32 4.83956 -74.31841 12216 ft 257 kts 126°
2026-05-03 21:32 4.82882 -74.30422 11920 ft 255 kts 126°
2026-05-03 21:33 4.81830 -74.29031 11648 ft 244 kts 126°
2026-05-03 21:33 4.80827 -74.27704 11331 ft 234 kts 127°
2026-05-03 21:33 4.79861 -74.26429 11021 ft 225 kts 127°
2026-05-03 21:33 4.78931 -74.25202 10775 ft 217 kts 127°
2026-05-03 21:34 4.78016 -74.23997 10502 ft 216 kts 127°
2026-05-03 21:34 4.77124 -74.22821 10203 ft 207 kts 127°
2026-05-03 21:34 4.76283 -74.21703 9916 ft 193 kts 128°
2026-05-03 21:34 4.75483 -74.20647 9657 ft 190 kts 128°
2026-05-03 21:35 4.74683 -74.19587 9440 ft 191 kts 129°
2026-05-03 21:35 4.73880 -74.18528 9202 ft 190 kts 129°
2026-05-03 21:35 4.73078 -74.17472 8950 ft 190 kts 129°
2026-05-03 21:35 4.72281 -74.16422 8692 ft 188 kts 129°
2026-05-03 21:36 4.71480 -74.15392 8476 ft 186 kts 129°
2026-05-03 21:36 4.70725 -74.14400 8380 ft 153 kts 127°
2026-05-03 21:36 4.70265 -74.13791 8376 ft 67 kts 127°
2026-05-03 21:36 4.70030 -74.13479 8379 ft 53 kts 127°
2026-05-03 21:37 4.69886 -74.13337 8380 ft 22 kts 155°
2026-05-03 21:37 4.69745 -74.13308 8379 ft 15 kts 172°
2026-05-03 21:37 4.69687 -74.13300 8380 ft 8 kts 173°
2026-05-03 21:37 4.69607 -74.13294 8381 ft 10 kts 202°
2026-05-03 21:38 4.69607 -74.13362 8381 ft 12 kts 305°
2026-05-03 21:38 4.69666 -74.13441 8381 ft 16 kts 307°
2026-05-03 21:38 4.69743 -74.13543 8377 ft 20 kts 307°
2026-05-03 21:38 4.69838 -74.13667 8381 ft 24 kts 307°
2026-05-03 21:39 4.69938 -74.13802 8379 ft 12 kts 307°
2026-05-03 21:39 4.69956 -74.13845 8380 ft 7 kts 250°
2026-05-03 21:39 4.69903 -74.13885 8380 ft 10 kts 208°
2026-05-03 21:39 4.69864 -74.13906 8381 ft 0 kts 216°
2026-05-03 21:40 4.69858 -74.13912 8381 ft 2 kts 218°
2026-05-03 21:40 4.69847 -74.13920 8381 ft 0 kts 217°